Location: Ammerl�gen
(47.2167°N, 9.6000°E)
Time: 02:31:15
(UTC+00:00)

CZ-4 R/B DEB - Visible Passes

Search period start: 17 October 2021 00:00
Search period end: 27 October 2021 00:00
Orbit: 737 x 793 km, 98.5° (Epoch: 16 October)

Date Brightness Start Highest point End Pass type
(mag) Time Alt. Az. Time Alt. Az. Time Alt. Az.
17 Oct ? 18:16:22 36° ESE 18:17:44 44° ENE 18:22:25 10° N visible
17 Oct ? 19:56:35 25° W 19:56:54 25° W 20:00:59 10° NW visible
18 Oct ? 17:39:16 18° E 17:41:11 23° ENE 17:45:00 10° N visible
18 Oct ? 19:19:29 52° WSW 19:19:50 53° W 19:24:41 10° NNW visible
19 Oct ? 17:03:02 10° ENE 17:04:50 12° NE 17:06:37 10° NNE visible
19 Oct ? 18:42:24 65° ESE 18:42:58 74° ENE 18:47:54 10° N visible
19 Oct ? 20:22:36 15° W 20:22:36 15° W 20:25:21 10° NW visible
20 Oct ? 18:05:17 32° E 18:06:16 36° ENE 18:10:46 10° N visible
20 Oct ? 19:45:30 31° W 19:45:30 31° W 19:49:42 10° NNW visible
21 Oct ? 17:28:11 16° E 17:29:47 19° ENE 17:33:10 10° NNE visible
21 Oct ? 19:08:24 67° W 19:08:24 67° W 19:13:13 10° NNW visible
22 Oct ? 18:31:18 58° E 18:31:27 58° ENE 18:36:19 10° N visible
22 Oct ? 20:11:30 19° W 20:11:30 19° W 20:14:21 10° NW visible
23 Oct ? 17:54:11 28° ENE 17:54:50 29° ENE 17:59:04 10° N visible
23 Oct ? 19:34:23 37° WNW 19:34:23 37° WNW 19:38:20 10° NNW visible
24 Oct ? 17:17:04 14° ENE 17:18:24 15° ENE 17:21:12 10° NNE visible
24 Oct ? 18:57:16 71° NNW 18:57:16 71° NNW 19:01:42 10° NNW visible
24 Oct ? 20:37:29 11° WNW 20:37:29 11° WNW 20:37:53 10° WNW visible
25 Oct ? 18:20:09 46° ENE 18:20:09 46° ENE 18:24:42 10° N visible
25 Oct ? 20:00:22 22° WNW 20:00:22 22° WNW 20:03:11 10° NW visible
26 Oct ? 17:43:02 23° ENE 17:43:24 24° ENE 17:47:18 10° N visible
26 Oct ? 19:23:14 41° WNW 19:23:14 41° WNW 19:26:55 10° NNW visible
